Location: SAPM � Hemmingford
(45.0500°N, 73.5833°W)
Time: 19:58:50
(UTC-04:00)

Daily predictions for brighter satellites

Satellite Brightness Start Highest point End
(mag) Time Altitude Azimuth Time Altitude Azimuth Time Altitude Azimuth
ALOS 2.3 19:33:41 10° SSE 19:38:18 64° ENE 19:42:57 10° N
Cosmos 1898 Rocket 3.5 19:33:15 10° S 19:38:31 71° ESE 19:43:48 10° NNE
Cosmos 2123 Rocket 4.3 19:35:34 10° N 19:41:40 48° ENE 19:47:43 10° SSE
Envisat 4.4 19:38:36 10° ESE 19:42:09 20° ENE 19:45:43 10° NNE
Cosmos 1844 Rocket 2.7 19:36:52 10° SSW 19:42:30 76° ESE 19:48:09 10° NNE
SJ-6B 2.7 19:38:56 10° SSE 19:42:40 89° E 19:46:26 10° NNW
Helios 1B rocket 3.9 19:41:43 10° NE 19:44:23 16° E 19:47:02 10° SE
USA 267 4.4 19:44:13 10° ENE 19:49:55 33° N 19:55:38 10° NW
Cosmos 1833 Rocket 3.9 19:46:03 10° N 19:50:39 25° NE 19:55:11 10° ESE
Helios 1A 4.0 19:48:37 10° SE 19:52:10 28° ENE 19:55:46 10° N
Cosmos 1378 3.1 19:49:09 10° N 19:52:56 86° ENE 19:56:41 10° S
Cosmos 2278 Rocket 2.6 19:49:09 10° S 19:54:25 41° ESE 19:59:43 10° NE
Lacrosse 4 Rocket 1.3 19:50:58 10° SSW 19:55:02 88° WNW 19:59:07 10° NNE
FengYun 1-2 T 4.3 19:54:45 10° SSE 20:00:20 89° ENE 20:06:00 10° NNW
FENGYUN 3A 3.8 19:55:01 10° SSE 20:00:26 85° WSW 20:05:53 10° NNW
Lacrosse 5 2.2 19:56:15 10° SSW 20:01:04 45° SE 20:05:53 10° ENE
CZ-3B DEB 2.9 19:49:39 10° SW 20:01:23 73° SE 20:06:37 10° ENE
Cosmos 1758 4.3 20:00:50 10° SSE 20:04:10 26° E 20:07:31 10° NNE
HJ-1C 3.7 20:01:24 10° S 20:04:47 71° W 20:08:12 10° NNW
Cosmos 1937 Rocket 3.6 20:04:40 10° SSW 20:09:56 87° WNW 20:15:16 10° NNE
Cosmos 1818 3.9 20:05:04 10° NNW 20:10:23 50° NE 20:14:47 15° ESE
SL-27 R/B 2.6 20:08:07 10° NNW 20:11:42 78° WSW 20:15:18 10° SSE
H-2A R/B 2.8 20:07:48 10° SSE 20:11:42 88° W 20:15:40 10° NNW
Meteor 1-24 Rocket 3.8 20:06:32 10° NNW 20:12:00 80° W 20:17:39 10° S
Cosmos 1953 3.1 20:10:07 10° SSE 20:13:43 31° E 20:17:18 10° NNE
Resurs 1-3 3.5 20:09:40 10° SSE 20:14:03 82° ENE 20:18:28 10° NNW
Cosmos 1939 Rocket 4.1 20:12:14 16° ESE 20:14:29 25° ENE 20:17:55 10° NNE
SeaSat 1 3.5 20:11:17 10° S 20:16:01 46° WSW 20:20:47 10° NW
Meteor 1-4 Rocket 3.3 20:13:38 10° SSE 20:16:40 28° E 20:19:43 10° NNE
Meteor 1-29 4.0 20:14:17 10° NE 20:17:14 25° E 20:19:51 12° SSE
COSMOS 2487 3.7 20:15:58 10° N 20:18:59 25° ENE 20:20:12 21° E
Cosmos 1544 3.3 20:17:06 10° SSE 20:20:35 45° E 20:24:07 10° NNE
Cosmos 2082 Rocket 2.7 20:16:52 10° NNW 20:22:20 44° ENE 20:26:10 18° ESE
Cosmos 1269 Rocket 4.4 20:18:02 10° N 20:23:07 44° ENE 20:26:45 18° SE
Cosmos 1408 Rocket 4.0 20:26:28 10° N 20:30:43 41° ENE 20:33:14 21° SE
Cosmos 468 4.4 20:26:26 10° NNW 20:31:41 73° ENE 20:36:15 14° SSE
Cosmos 2098 Rocket 4.4 20:25:30 10° S 20:32:30 61° E 20:39:58 10° NNE
Lacrosse 5 rocket 2.5 20:30:04 10° NW 20:33:33 27° NNE 20:35:09 20° ENE
Cosmos 1766 3.9 20:30:39 10° SSW 20:34:28 56° W 20:38:19 10° N
Cosmos 1934 Rocket 4.4 20:30:17 10° SSW 20:36:23 66° W 20:42:27 10° N
Okean 3 Rocket 3.7 20:33:29 10° NNW 20:37:54 78° W 20:42:17 10° S
Cosmos 1271 Rocket 3.8 20:39:43 27° E 20:39:43 27° E 20:42:48 10° NNE
Tiangong 1 2.9 20:37:08 10° WSW 20:39:21 19° SSW 20:40:10 18° S
RESURS DK-1 3.7 20:37:21 10° NW 20:41:13 39° WSW 20:45:04 10° S
Abrixas 2.2 20:43:49 10° WNW 20:46:39 70° SSW 20:46:54 64° SSE
Cosmos 1867 3.9 20:42:20 10° S 20:47:26 43° ESE 20:52:36 10° NE
ARGOS 4.4 20:47:50 22° ENE 20:48:38 22° ENE 20:52:41 10° NNE
SJ-11-01 4.3 20:45:42 22° SSE 20:48:40 65° ENE 20:53:21 10° N
USA 186 2.5 20:50:05 27° SW 20:50:45 35° W 20:52:51 10° NNW
Cosmos 372 Rocket 4.0 20:49:25 10° S 20:54:20 50° ESE 20:59:19 10° NNE
Timation 1 Rocket 4.2 20:48:45 10° SSW 20:54:43 70° ESE 21:00:43 10° NNE
Meteor 1-21 Rocket 4.3 20:49:27 10° N 20:55:18 89° ENE 21:00:51 12° S
USA 215 3.3 20:52:06 10° ENE 20:58:33 57° SE 21:04:57 10° SSW
Cosmos 1674 2.5 20:58:07 10° N 21:01:55 86° E 21:02:55 47° SSE
GP-B 3.1 20:58:26 11° S 21:02:40 82° W 21:07:09 10° N
Cosmos 2016 Rocket 4.3 21:01:04 32° SE 21:03:09 41° E 21:08:53 10° NNE
Cosmos 2344 4.0 20:56:37 10° SW 21:04:16 68° NW 21:13:15 10° NE
Cosmos 158 Rocket 3.8 20:59:32 10° NNW 21:04:40 81° ENE 21:06:53 35° SSE
Resurs 01 Rocket 3.8 21:01:35 10° SSW 21:05:15 26° W 21:08:58 10° NW
Cosmos 1076 Rocket 4.1 21:05:05 10° NNW 21:09:14 54° W 21:12:27 16° SSW
Cosmos 1805 4.4 21:05:57 10° SSW 21:09:40 43° WNW 21:13:26 10° N
Cosmos 1766 Rocket 3.8 21:09:19 10° NNW 21:13:47 70° W 21:16:04 28° S
H-2A R/B 3.5 21:14:41 23° ENE 21:14:41 23° ENE 21:18:28 10° NNE
Cosmos 494 Rocket 4.5 21:10:50 10° N 21:15:38 39° ENE 21:15:51 39° ENE
Cosmos 2100 Rocket 3.9 21:09:52 10° S 21:16:10 78° E 21:22:34 10° N
Helios 1B rocket 3.5 21:15:58 10° N 21:19:56 46° WNW 21:23:52 10° SW
Tsikada Rocket 4.4 21:14:41 10° N 21:20:32 41° ENE 21:21:04 40° E
Envisat 3.4 21:17:16 20° S 21:20:42 61° W 21:25:46 10° NNW
Cosmos 1340 Rocket 2.7 21:18:03 10° N 21:22:07 90° NW 21:22:08 89° S
YAOGAN 6 3.0 21:22:58 57° N 21:22:58 57° N 21:26:02 10° N
Fregat R/B Cluster 11 4.4 21:17:16 10° SW 21:22:29 66° NW 21:25:49 10° NNE
Cosmos 1470 2.7 21:23:17 76° SW 21:23:32 82° W 21:27:32 10° N
Cosmos 1125 Rocket 3.9 21:23:50 10° SSW 21:28:58 63° WNW 21:34:11 10° NNE
USA 267 3.5 21:30:04 41° E 21:32:12 60° NNE 21:38:37 10° NW
Lacrosse 4 Rocket 4.5 21:32:30 10° WNW 21:34:23 13° NW 21:36:16 10° NNW
Cosmos 1802 Rocket 3.8 21:31:04 25° S 21:34:50 85° E 21:41:02 10° N
Cosmos 1833 Rocket 3.0 21:29:27 10° NNW 21:34:59 60° WSW 21:36:55 39° S
Cosmos-2242 3.5 21:33:21 33° SW 21:35:01 59° W 21:39:15 10° N
NOAA 11 4.1 21:36:48 66° E 21:37:13 68° ENE 21:42:41 10° N
Cosmos 2278 Rocket 3.8 21:33:26 10° WSW 21:38:34 34° NW 21:43:44 10° N
Cosmos 1733 4.1 21:43:27 48° WNW 21:43:27 48° WNW 21:47:03 10° N
Lacrosse 5 2.9 21:39:15 10° WSW 21:44:06 43° NNW 21:47:18 20° NNE
ERS-1 Rocket 3.2 21:43:28 54° SSW 21:44:26 66° WSW 21:49:28 10° NNW
Cosmos 2061 Rocket 4.1 21:38:33 11° SSW 21:44:42 77° W 21:51:11 10° N
Cosmos 1743 Rocket 3.8 21:41:13 10° NNW 21:45:27 66° W 21:45:27 66° W
MetOp-B 3.9 21:45:45 80° ESE 21:45:57 83° ENE 21:51:20 10° NNW
SPOT 5 3.0 21:47:10 72° ENE 21:47:10 72° ENE 21:52:22 10° N
H-2A R/B 4.2 21:50:04 17° NNE 21:50:04 17° NNE 21:51:16 10° N
Timation 2 Rocket 4.4 21:41:45 10° NW 21:47:55 56° WSW 21:49:54 39° SSW
Cosmos 1500 Rocket 4.1 21:43:49 10° N 21:47:10 53° NNW 21:47:10 53° NNW
Meteor 1-11 4.0 21:46:04 10° N 21:51:34 80° ENE 21:51:34 80° ENE
Cosmos 2297 4.4 21:46:15 10° SW 21:51:50 54° WNW 21:57:28 10° NNE
SPOT 1/Viking Rocket 4.0 21:58:41 51° NNE 21:58:41 51° NNE 22:02:49 10° N
ATLAS 5 CENTAUR R/B4.422:05:02NE22:05:02NE21:53:19SW
Cosmos 1816 Rocket 4.5 21:53:22 10° N 21:59:11 66° ENE 21:59:11 66° ENE
Cosmos 2251 Rocket 3.6 21:54:30 10° NNW 21:59:22 75° NNW 21:59:22 75° NNW
Cosmos 2082 Rocket 3.7 22:01:18 10° NW 22:06:14 31° WSW 22:08:04 25° SW
Meteor 1-16 Rocket 4.4 22:11:54 68° WSW 22:12:22 71° WNW 22:18:18 10° N
Lacrosse 5 rocket 3.4 22:09:11 10° NW 22:10:52 23° WNW 22:10:52 23° WNW
CZ-3B DEB 3.3 22:07:23 10° W 22:13:59 32° NNW 22:15:03 29° N
Terra 3.6 22:17:20 23° NNE 22:17:20 23° NNE 22:19:23 10° N
ARGOS 3.8 22:29:20 51° WNW 22:29:20 51° WNW 22:33:46 10° NNW
USA 215 3.8 22:35:12 10° NE 22:41:33 54° NNW 22:47:51 10° WSW
H-2A R/B 3.4 22:55:19 37° NW 22:55:19 37° NW 22:58:40 10° NNW
Cosmos 2369 Rocket 4.5 23:06:38 15° NNE 23:06:38 15° NNE 23:07:36 10° NNE
USA 267 4.3 23:17:25 37° W 23:17:25 37° W 23:21:38 10° WNW
Lacrosse 5 4.3 23:24:15 10° WNW 23:26:34 19° NW 23:26:34 19° NW
